EW2827 Weather Reports


time (UTC)temp
F
wind
direction
speed
knots
gust
knots
rain 1hr
in
rain 24hr
in
rain mn
in
humidity
%
barometer
mb
20260509090405 58 76 1.7 2.6 0.00 0.00 0.00 80 1008.7
20260509085405 58 76 1.7 2.6 0.00 0.00 0.00 79 1008.6
20260509084405 59 76 0.0 0.9 0.00 0.00 0.00 78 1008.4
20260509083405 59 76 0.9 2.6 0.00 0.00 0.00 78 1008.4
20260509082419 59 76 0.0 1.7 0.00 0.00 0.00 77 1008.3
20260509081904 60 76 0.0 1.7 0.00 0.00 0.00 76 1008.1
20260509080404 60 76 0.9 1.7 0.00 0.00 0.00 76 1008.0
20260509075405 60 76 0.0 1.7 0.00 0.00 0.00 75 1007.9
20260509074400 61 76 0.0 1.7 0.00 0.00 0.00 73 1007.8
20260509073359 62 76 0.9 1.7 0.00 0.00 0.00 72 1007.7
20260509072901 62 76 0.0 2.6 0.00 0.00 0.00 71 1007.7
20260509071407 63 140 0.9 2.6 0.00 0.00 0.00 69 1007.6
20260509071400 63 76 0.9 3.5 0.00 0.00 0.00 70 1007.6
20260509065357 63 98 1.7 5.2 0.00 0.00 0.00 69 1007.5
20260509064358 64 145 2.6 6.1 0.00 0.00 0.00 68 1007.3
20260509063358 64 153 2.6 6.1 0.00 0.00 0.00 67 1007.2
20260509062359 65 191 2.6 7.8 0.00 0.00 0.00 66 1007.2
20260509061353 65 109 2.6 7.8 0.00 0.00 0.00 65 1007.0
20260509060854 66 194 3.5 8.7 0.00 0.00 0.00 65 1006.9
20260509055349 66 119 2.6 6.1 0.00 0.00 0.00 64 1006.8
20260509054854 66 144 3.5 6.1 0.00 0.00 0.00 64 1006.8
20260509053350 66 204 2.6 7.0 0.00 0.00 0.00 64 1006.7
20260509052352 66 103 3.5 8.7 0.00 0.00 0.00 63 1006.7
20260509051348 66 163 3.5 8.7 0.00 0.00 0.00 63 1006.6
20260509050349 67 142 4.3 8.7 0.00 0.00 0.00 63 1006.6
20260509045346 67 194 4.3 9.6 0.00 0.00 0.00 62 1006.5
20260509044347 67 136 3.5 7.8 0.00 0.00 0.00 62 1006.5
20260509043346 68 117 3.5 11.3 0.00 0.00 0.00 61 1006.5
20260509042347 68 132 3.5 8.7 0.00 0.00 0.00 61 1006.5
20260509041346 68 114 4.3 9.6 0.00 0.00 0.00 59 1006.4
20260509040848 69 229 3.5 8.7 0.00 0.00 0.00 57 1006.4
20260509035347 70 148 0.9 2.6 0.00 0.00 0.00 51 1006.4
20260509034345 70 155 0.9 3.5 0.00 0.00 0.00 51 1006.4
20260509033345 70 230 1.7 4.3 0.00 0.00 0.00 52 1006.4
20260509032346 70 240 0.9 5.2 0.00 0.00 0.00 52 1006.6
20260509031346 69 277 1.7 6.1 0.00 0.00 0.00 53 1006.7
20260509030346 68 338 1.7 4.3 0.00 0.00 0.00 54 1006.8
20260509025936 67 261 0.9 3.5 0.00 0.00 0.00 56 1006.9
20260509024346 67 144 1.7 5.2 0.00 0.00 0.00 56 1007.0
20260509023347 67 163 1.7 6.1 0.00 0.00 0.00 56 1007.3
20260509022346 67 288 2.6 7.0 0.00 0.00 0.00 56 1007.3
20260509021344 66 229 3.5 9.6 0.00 0.00 0.00 55 1007.5
20260509020846 67 145 1.7 7.0 0.00 0.00 0.00 57 1007.6
20260509015438 67 178 2.6 7.0 0.00 0.00 0.00 58 1007.7
20260509015345 66 180 2.6 6.1 0.00 0.00 0.00 57 1007.7
20260509013345 67 153 0.9 5.2 0.00 0.00 0.00 58 1007.8
20260509012343 66 237 1.7 6.1 0.00 0.00 0.00 59 1008.0
20260509011357 65 155 2.6 8.7 0.00 0.00 0.00 62 1008.0
20260509011345 65 227 1.7 4.3 0.00 0.00 0.00 61 1007.9
20260509005345 65 178 1.7 8.7 0.00 0.00 0.00 63 1008.1
20260509004846 64 241 1.7 6.1 0.00 0.00 0.00 64 1008.2
20260509003344 63 252 1.7 7.0 0.00 0.00 0.00 65 1008.2
20260509002343 62 207 1.7 6.1 0.00 0.00 0.00 65 1008.2
20260509001344 61 194 2.6 7.0 0.00 0.00 0.00 67 1008.3
20260509000422 60 216 0.9 5.2 0.00 0.00 0.00 69 1008.3
20260508235344 59 245 1.7 6.1 0.00 0.00 0.00 70 1008.4
20260508234345 58 265 1.7 7.0 0.00 0.00 0.00 72 1008.5
20260508233357 58 244 1.7 4.3 0.00 0.00 0.00 74 1008.4
20260508232338 57 187 1.7 4.3 0.00 0.00 0.00 74 1008.4
20260508231840 56 294 0.9 4.3 0.00 0.00 0.00 76 1008.4
20260508230351 55 227 0.9 3.5 0.00 0.00 0.00 77 1008.4
20260508230338 56 234 0.9 4.3 0.00 0.00 0.00 77 1008.5
20260508224339 55 243 0.9 4.3 0.00 0.00 0.00 78 1008.4
20260508223338 54 210 1.7 4.3 0.00 0.00 0.00 79 1008.4
20260508222337 54 265 0.9 5.2 0.00 0.00 0.00 80 1008.4
20260508221339 53 284 1.7 4.3 0.00 0.00 0.00 80 1008.2
20260508220337 53 209 0.9 2.6 0.00 0.00 0.00 80 1008.1
20260508215335 53 209 0.9 2.6 0.00 0.00 0.00 80 1008.1
20260508214334 53 194 0.0 3.5 0.00 0.00 0.00 80 1007.9
20260508213335 53 211 0.9 4.3 0.00 0.00 0.00 79 1007.9
20260508212337 53 247 0.9 6.1 0.00 0.00 0.00 79 1007.7
20260508211837 53 205 0.0 2.6 0.00 0.00 0.00 78 1007.6
20260508210837 53 203 0.0 3.5 0.00 0.00 0.00 78 1007.5
20260508205336 53 308 0.0 2.6 0.00 0.00 0.00 77 1007.4
20260508204334 54 232 0.9 3.5 0.00 0.00 0.00 77 1007.2
20260508203330 54 230 0.0 1.7 0.00 0.00 0.00 76 1007.2
20260508202331 55 230 0.0 1.7 0.00 0.00 0.00 76 1007.0
20260508201330 55 223 0.9 2.6 0.00 0.00 0.00 76 1006.9
20260508200329 55 195 0.9 3.5 0.00 0.00 0.00 76 1006.8
20260508195829 55 193 0.9 4.3 0.00 0.00 0.00 76 1006.6
20260508194328 55 206 0.0 2.6 0.00 0.00 0.00 76 1006.5
20260508193329 55 277 0.0 1.7 0.00 0.00 0.00 76 1006.3
20260508192329 55 197 0.0 0.9 0.00 0.00 0.00 76 1006.2
20260508191326 55 186 0.0 2.6 0.00 0.00 0.00 76 1006.1
20260508190326 55 252 0.9 3.5 0.00 0.00 0.00 76 1006.1
20260508185328 55 207 0.0 2.6 0.00 0.00 0.00 76 1006.0
20260508184340 54 177 0.0 2.6 0.00 0.00 0.00 76 1005.9
20260508184329 54 178 0.0 2.6 0.00 0.00 0.00 76 1006.0
20260508182328 54 283 0.0 1.7 0.00 0.00 0.00 76 1005.8
20260508181830 54 265 0.0 0.9 0.00 0.00 0.00 76 1005.7
20260508180328 54 284 0.0 2.6 0.00 0.00 0.00 76 1005.6
20260508175826 54 217 0.0 3.5 0.00 0.00 0.00 75 1005.6
20260508174825 54 217 0.9 3.5 0.00 0.00 0.00 75 1005.6
20260508173322 54 195 0.0 2.6 0.00 0.00 0.00 75 1005.6
20260508172324 54 190 0.0 2.6 0.00 0.00 0.00 75 1005.5
20260508171338 54 209 0.9 3.5 0.00 0.00 0.00 75 1005.6
20260508171323 54 190 0.9 3.5 0.00 0.00 0.00 75 1005.6
20260508165822 54 297 0.0 6.1 0.00 0.00 0.00 76 1005.6
20260508164321 54 284 0.9 3.5 0.00 0.00 0.00 76 1005.6
20260508163322 54 255 0.0 2.6 0.00 0.00 0.00 76 1005.6
20260508162314 53 296 0.0 1.7 0.00 0.00 0.00 76 1005.6
20260508161314 53 271 0.9 3.5 0.00 0.00 0.00 76 1005.5
20260508160314 53 281 0.9 3.5 0.00 0.00 0.00 76 1005.4
20260508155812 54 221 0.0 1.7 0.00 0.00 0.00 75 1005.4
20260508154314 54 216 0.9 4.3 0.00 0.00 0.00 75 1005.4
20260508153314 54 208 1.7 5.2 0.00 0.00 0.00 75 1005.4
20260508152313 54 198 0.9 2.6 0.00 0.00 0.00 74 1005.3
20260508151813 54 216 0.9 4.3 0.00 0.00 0.00 74 1005.4
20260508150314 54 202 0.9 3.5 0.00 0.00 0.00 74 1005.4
20260508145307 55 278 0.9 4.3 0.00 0.00 0.00 74 1005.3
20260508144307 55 204 0.9 3.5 0.00 0.00 0.00 73 1005.2
20260508143306 55 275 0.9 4.3 0.00 0.00 0.00 73 1005.3
20260508142307 55 301 0.9 3.5 0.00 0.00 0.00 73 1005.3
20260508141323 55 263 0.9 3.5 0.00 0.00 0.00 73 1005.3
20260508140306 56 207 1.7 6.1 0.00 0.00 0.00 72 1005.3
20260508135306 56 221 1.7 5.2 0.00 0.00 0.00 72 1005.2
20260508134808 56 190 0.9 4.3 0.00 0.00 0.00 72 1005.1
20260508133307 56 288 0.9 4.3 0.00 0.00 0.00 72 1005.1
20260508132300 56 298 0.0 3.5 0.00 0.00 0.00 72 1005.1
20260508131300 56 202 0.9 2.6 0.00 0.00 0.00 72 1005.1
20260508130801 56 238 0.9 3.5 0.00 0.00 0.00 72 1005.1
20260508125308 56 213 0.9 4.3 0.00 0.00 0.00 72 1005.1
20260508125258 56 236 0.0 3.5 0.00 0.00 0.00 72 1005.2
20260508123259 56 237 1.7 7.0 0.00 0.00 0.00 72 1005.1
20260508122259 56 210 0.9 7.0 0.00 0.00 0.00 72 1005.1
20260508121308 56 222 0.9 2.6 0.00 0.00 0.00 72 1005.0
20260508121258 56 221 0.9 6.1 0.00 0.00 0.00 72 1005.1
20260508115756 56 259 0.9 3.5 0.00 0.00 0.00 72 1005.0
20260508114251 56 262 0.9 2.6 0.00 0.00 0.00 72 1004.9
20260508113251 56 207 0.9 3.5 0.00 0.00 0.00 71 1004.9
20260508112754 56 224 0.9 4.3 0.00 0.00 0.00 71 1004.8
20260508111753 56 200 0.9 3.5 0.00 0.00 0.00 71 1004.8
20260508110301 56 229 1.7 4.3 0.00 0.00 0.00 71 1004.7
20260508105249 56 204 0.9 4.3 0.00 0.00 0.00 70 1004.5
20260508104250 56 213 0.9 4.3 0.00 0.00 0.00 70 1004.5
20260508103250 56 232 0.9 3.5 0.00 0.00 0.00 69 1004.4
20260508102249 57 227 0.9 4.3 0.00 0.00 0.00 69 1004.4
20260508101250 57 190 0.9 4.3 0.00 0.00 0.00 68 1004.3
20260508100252 57 208 1.7 4.3 0.00 0.00 0.00 68 1004.2
20260508095255 58 224 1.7 7.8 0.00 0.00 0.00 67 1004.0
20260508094250 58 207 1.7 6.1 0.00 0.00 0.00 67 1004.0
20260508093252 58 199 2.6 7.0 0.00 0.00 0.00 66 1003.8
20260508092250 58 232 3.5 9.6 0.00 0.00 0.00 66 1003.6
20260508091250 58 246 2.6 7.0 0.00 0.00 0.00 65 1003.5